Year,Month,Day,Hour,Minute,Value (Times are PST for temperature in C)
2016,08,14,00,00,17.70
2016,08,14,00,01,17.60
2016,08,14,00,02,17.60
2016,08,14,00,03,17.60
2016,08,14,00,04,17.60
2016,08,14,00,05,17.60
2016,08,14,00,06,17.60
2016,08,14,00,07,17.60
2016,08,14,00,08,17.60
2016,08,14,00,09,17.60
2016,08,14,00,10,17.60
2016,08,14,00,11,17.60
2016,08,14,00,12,17.60
2016,08,14,00,13,17.50
2016,08,14,00,14,17.50
2016,08,14,00,15,17.50
2016,08,14,00,16,17.50
2016,08,14,00,17,17.50
2016,08,14,00,18,17.40
2016,08,14,00,19,17.40
2016,08,14,00,20,17.40
2016,08,14,00,21,17.40
2016,08,14,00,22,17.40
2016,08,14,00,23,17.40
2016,08,14,00,24,17.40
2016,08,14,00,25,17.30
2016,08,14,00,26,17.30
2016,08,14,00,27,17.30
2016,08,14,00,28,17.30
2016,08,14,00,29,17.30
2016,08,14,00,30,17.30
2016,08,14,00,31,17.30
2016,08,14,00,32,17.30
2016,08,14,00,33,17.20
2016,08,14,00,34,17.20
2016,08,14,00,35,17.20
2016,08,14,00,36,17.20
2016,08,14,00,37,17.20
2016,08,14,00,38,17.20
2016,08,14,00,39,17.20
2016,08,14,00,40,17.20
2016,08,14,00,41,17.20
2016,08,14,00,42,17.20
2016,08,14,00,43,17.10
2016,08,14,00,44,17.10
2016,08,14,00,45,17.10
2016,08,14,00,46,17.10
2016,08,14,00,47,17.10
2016,08,14,00,48,17.10
2016,08,14,00,49,17.10
2016,08,14,00,50,17.00
2016,08,14,00,51,17.00
2016,08,14,00,52,17.00
2016,08,14,00,53,17.00
2016,08,14,00,54,16.90
2016,08,14,00,55,16.90
2016,08,14,00,56,16.90
2016,08,14,00,57,16.90
2016,08,14,00,58,16.90
2016,08,14,00,59,16.90
2016,08,14,01,00,16.90
2016,08,14,01,01,16.80
2016,08,14,01,02,16.90
2016,08,14,01,03,16.80
2016,08,14,01,04,16.80
2016,08,14,01,05,16.80
2016,08,14,01,06,16.80
2016,08,14,01,07,16.80
2016,08,14,01,08,16.80
2016,08,14,01,09,16.80
2016,08,14,01,10,16.80
2016,08,14,01,11,16.80
2016,08,14,01,12,16.70
2016,08,14,01,13,16.70
2016,08,14,01,14,16.70
2016,08,14,01,15,16.70
2016,08,14,01,16,16.70
2016,08,14,01,17,16.70
2016,08,14,01,18,16.70
2016,08,14,01,19,16.70
2016,08,14,01,20,16.70
2016,08,14,01,21,16.70
2016,08,14,01,22,16.70
2016,08,14,01,23,16.70
2016,08,14,01,24,16.70
2016,08,14,01,25,16.70
2016,08,14,01,26,16.70
2016,08,14,01,27,16.70
2016,08,14,01,28,16.70
2016,08,14,01,29,16.70
2016,08,14,01,30,16.70
2016,08,14,01,31,16.70
2016,08,14,01,32,16.70
2016,08,14,01,33,16.60
2016,08,14,01,34,16.60
2016,08,14,01,35,16.60
2016,08,14,01,36,16.60
2016,08,14,01,37,16.60
2016,08,14,01,38,16.60
2016,08,14,01,39,16.60
2016,08,14,01,40,16.60
2016,08,14,01,41,16.60
2016,08,14,01,42,16.60
2016,08,14,01,43,16.60
2016,08,14,01,44,16.60
2016,08,14,01,45,16.60
2016,08,14,01,46,16.50
2016,08,14,01,47,16.50
2016,08,14,01,48,16.50
2016,08,14,01,49,16.50
2016,08,14,01,50,16.50
2016,08,14,01,51,16.50
2016,08,14,01,52,16.50
2016,08,14,01,53,16.50
2016,08,14,01,54,16.50
2016,08,14,01,55,16.50
2016,08,14,01,56,16.50
2016,08,14,01,57,16.50
2016,08,14,01,58,16.50
2016,08,14,01,59,16.50
2016,08,14,02,00,16.50
2016,08,14,02,01,16.50
2016,08,14,02,02,16.50
2016,08,14,02,03,16.50
2016,08,14,02,04,16.50
2016,08,14,02,05,16.50
2016,08,14,02,06,16.50
2016,08,14,02,07,16.50
2016,08,14,02,08,16.50
2016,08,14,02,09,16.50
2016,08,14,02,10,16.40
2016,08,14,02,11,16.40
2016,08,14,02,12,16.40
2016,08,14,02,13,16.40
2016,08,14,02,14,16.40
2016,08,14,02,15,16.40
2016,08,14,02,16,16.40
2016,08,14,02,17,16.40
2016,08,14,02,18,16.40
2016,08,14,02,19,16.30
2016,08,14,02,20,16.30
2016,08,14,02,21,16.30
2016,08,14,02,22,16.30
2016,08,14,02,23,16.30
2016,08,14,02,24,16.30
2016,08,14,02,25,16.30
2016,08,14,02,26,16.20
2016,08,14,02,27,16.20
2016,08,14,02,28,16.20
2016,08,14,02,29,16.20
2016,08,14,02,30,16.20
2016,08,14,02,31,16.20
2016,08,14,02,32,16.20
2016,08,14,02,33,16.20
2016,08,14,02,34,16.20
2016,08,14,02,35,16.20
2016,08,14,02,36,16.20
2016,08,14,02,37,16.20
2016,08,14,02,38,16.20
2016,08,14,02,39,16.10
2016,08,14,02,40,16.10
2016,08,14,02,41,16.10
2016,08,14,02,42,16.10
2016,08,14,02,43,16.10
2016,08,14,02,44,16.10
2016,08,14,02,45,16.10
2016,08,14,02,46,16.20
2016,08,14,02,47,16.20
2016,08,14,02,48,16.20
2016,08,14,02,49,16.20
2016,08,14,02,50,16.20
2016,08,14,02,51,16.20
2016,08,14,02,52,16.20
2016,08,14,02,53,16.20
2016,08,14,02,54,16.20
2016,08,14,02,55,16.20
2016,08,14,02,56,16.10
2016,08,14,02,57,16.10
2016,08,14,02,58,16.10
2016,08,14,02,59,16.10
2016,08,14,03,00,16.10
2016,08,14,03,01,16.10
2016,08,14,03,02,16.10
2016,08,14,03,03,16.10
2016,08,14,03,04,16.10
2016,08,14,03,05,16.10
2016,08,14,03,06,16.00
2016,08,14,03,07,16.00
2016,08,14,03,08,16.00
2016,08,14,03,09,16.00
2016,08,14,03,10,16.00
2016,08,14,03,11,16.00
2016,08,14,03,12,16.00
2016,08,14,03,13,15.90
2016,08,14,03,14,15.90
2016,08,14,03,15,15.90
2016,08,14,03,16,15.90
2016,08,14,03,17,15.90
2016,08,14,03,18,15.90
2016,08,14,03,19,15.80
2016,08,14,03,20,15.80
2016,08,14,03,21,15.90
2016,08,14,03,22,15.90
2016,08,14,03,23,15.90
2016,08,14,03,24,15.90
2016,08,14,03,25,15.90
2016,08,14,03,26,15.90
2016,08,14,03,27,15.90
2016,08,14,03,28,15.90
2016,08,14,03,29,15.90
2016,08,14,03,30,15.90
2016,08,14,03,31,15.90
2016,08,14,03,32,15.90
2016,08,14,03,33,15.90
2016,08,14,03,34,15.90
2016,08,14,03,35,15.90
2016,08,14,03,36,15.90
2016,08,14,03,37,15.90
2016,08,14,03,38,15.90
2016,08,14,03,39,15.90
2016,08,14,03,40,15.90
2016,08,14,03,41,15.90
2016,08,14,03,42,15.90
2016,08,14,03,43,15.90
2016,08,14,03,44,15.80
2016,08,14,03,45,15.80
2016,08,14,03,46,15.80
2016,08,14,03,47,15.90
2016,08,14,03,48,15.90
2016,08,14,03,49,15.90
2016,08,14,03,50,15.90
2016,08,14,03,51,15.90
2016,08,14,03,52,15.90
2016,08,14,03,53,15.90
2016,08,14,03,54,15.90
2016,08,14,03,55,15.90
2016,08,14,03,56,15.90
2016,08,14,03,57,15.90
2016,08,14,03,58,15.90
2016,08,14,03,59,15.90
2016,08,14,04,00,15.90
2016,08,14,04,01,15.90
2016,08,14,04,02,15.80
2016,08,14,04,03,15.80
2016,08,14,04,04,15.80
2016,08,14,04,05,15.80
2016,08,14,04,06,15.80
2016,08,14,04,07,15.80
2016,08,14,04,08,15.80
2016,08,14,04,09,15.80
2016,08,14,04,10,15.80
2016,08,14,04,11,15.80
2016,08,14,04,12,15.80
2016,08,14,04,13,15.80
2016,08,14,04,14,15.80
2016,08,14,04,15,15.80
2016,08,14,04,16,15.80
2016,08,14,04,17,15.80
2016,08,14,04,18,15.80
2016,08,14,04,19,15.80
2016,08,14,04,20,15.80
2016,08,14,04,21,15.80
2016,08,14,04,22,15.80
2016,08,14,04,23,15.80
2016,08,14,04,24,15.80
2016,08,14,04,25,15.80
2016,08,14,04,26,15.80
2016,08,14,04,27,15.80
2016,08,14,04,28,15.80
2016,08,14,04,29,15.90
2016,08,14,04,30,15.90
2016,08,14,04,31,15.90
2016,08,14,04,32,15.90
2016,08,14,04,33,15.90
2016,08,14,04,34,15.90
2016,08,14,04,35,15.90
2016,08,14,04,36,15.90
2016,08,14,04,37,15.90
2016,08,14,04,38,16.00
2016,08,14,04,39,16.00
2016,08,14,04,40,16.00
2016,08,14,04,41,16.00
2016,08,14,04,42,16.00
2016,08,14,04,43,16.00
2016,08,14,04,44,16.00
2016,08,14,04,45,16.00
2016,08,14,04,46,16.00
2016,08,14,04,47,16.00
2016,08,14,04,48,16.00
2016,08,14,04,49,15.90
2016,08,14,04,50,15.90
2016,08,14,04,51,15.90
2016,08,14,04,52,15.90
2016,08,14,04,53,15.90
2016,08,14,04,54,15.90
2016,08,14,04,55,15.90
2016,08,14,04,56,15.90
2016,08,14,04,57,15.90
2016,08,14,04,58,15.90
2016,08,14,04,59,15.90
2016,08,14,05,00,15.90
2016,08,14,05,01,15.90
2016,08,14,05,02,15.90
2016,08,14,05,03,15.90
2016,08,14,05,04,15.90
2016,08,14,05,05,15.90
2016,08,14,05,06,15.90
2016,08,14,05,07,15.90
2016,08,14,05,08,15.90
2016,08,14,05,09,15.90
2016,08,14,05,10,15.90
2016,08,14,05,11,15.90
2016,08,14,05,12,15.90
2016,08,14,05,13,15.90
2016,08,14,05,14,15.90
2016,08,14,05,15,15.90
2016,08,14,05,16,15.90
2016,08,14,05,17,15.90
2016,08,14,05,18,15.90
2016,08,14,05,19,15.90
2016,08,14,05,20,15.90
2016,08,14,05,21,15.90
2016,08,14,05,22,15.90
2016,08,14,05,23,15.90
2016,08,14,05,24,15.90
2016,08,14,05,25,15.90
2016,08,14,05,26,15.90
2016,08,14,05,27,15.90
2016,08,14,05,28,15.90
2016,08,14,05,29,15.90
2016,08,14,05,30,15.90
2016,08,14,05,31,15.90
2016,08,14,05,32,15.90
2016,08,14,05,33,15.90
2016,08,14,05,34,15.90
2016,08,14,05,35,15.90
2016,08,14,05,36,15.90
2016,08,14,05,37,15.90
2016,08,14,05,38,15.90
2016,08,14,05,39,15.90
2016,08,14,05,40,15.90
2016,08,14,05,41,15.90
2016,08,14,05,42,15.90
2016,08,14,05,43,15.90
2016,08,14,05,44,15.90
2016,08,14,05,45,15.90
2016,08,14,05,46,15.90
2016,08,14,05,47,15.90
2016,08,14,05,48,15.90
2016,08,14,05,49,15.90
2016,08,14,05,50,15.80
2016,08,14,05,51,15.80
2016,08,14,05,52,15.80
2016,08,14,05,53,15.80
2016,08,14,05,54,15.80
2016,08,14,05,55,15.80
2016,08,14,05,56,15.80
2016,08,14,05,57,15.80
2016,08,14,05,58,15.80
2016,08,14,05,59,15.80
2016,08,14,06,00,15.80
2016,08,14,06,01,15.80
2016,08,14,06,02,15.80
2016,08,14,06,03,15.70
2016,08,14,06,04,15.70
2016,08,14,06,05,15.70
2016,08,14,06,06,15.70
2016,08,14,06,07,15.70
2016,08,14,06,08,15.70
2016,08,14,06,09,15.70
2016,08,14,06,10,15.70
2016,08,14,06,11,15.70
2016,08,14,06,12,15.70
2016,08,14,06,13,15.70
2016,08,14,06,14,15.80
2016,08,14,06,15,15.80
2016,08,14,06,16,15.80
2016,08,14,06,17,15.80
2016,08,14,06,18,15.80
2016,08,14,06,19,15.80
2016,08,14,06,20,15.80
2016,08,14,06,21,15.80
2016,08,14,06,22,15.80
2016,08,14,06,23,15.80
2016,08,14,06,24,15.80
2016,08,14,06,25,15.80
2016,08,14,06,26,15.80
2016,08,14,06,27,15.80
2016,08,14,06,28,15.80
2016,08,14,06,29,15.80
2016,08,14,06,30,15.80
2016,08,14,06,31,15.80
2016,08,14,06,32,15.80
2016,08,14,06,33,15.80
2016,08,14,06,34,15.80
2016,08,14,06,35,15.80
2016,08,14,06,36,15.70
2016,08,14,06,37,15.70
2016,08,14,06,38,15.70
2016,08,14,06,39,15.70
2016,08,14,06,40,15.70
2016,08,14,06,41,15.70
2016,08,14,06,42,15.70
2016,08,14,06,43,15.70
2016,08,14,06,44,15.70
2016,08,14,06,45,15.70
2016,08,14,06,46,15.70
2016,08,14,06,47,15.70
2016,08,14,06,48,15.70
2016,08,14,06,49,15.80
2016,08,14,06,50,15.70
2016,08,14,06,51,15.70
2016,08,14,06,52,15.70
2016,08,14,06,53,15.70
2016,08,14,06,54,15.70
2016,08,14,06,55,15.80
2016,08,14,06,56,15.80
2016,08,14,06,57,15.70
2016,08,14,06,58,15.70
2016,08,14,06,59,15.70
2016,08,14,07,00,15.70
2016,08,14,07,01,15.70
2016,08,14,07,02,15.70
2016,08,14,07,03,15.70
2016,08,14,07,04,15.70
2016,08,14,07,05,15.70
2016,08,14,07,06,15.80
2016,08,14,07,07,15.80
2016,08,14,07,08,15.80
2016,08,14,07,09,15.80
2016,08,14,07,10,15.80
2016,08,14,07,11,15.80
2016,08,14,07,12,15.80
2016,08,14,07,13,15.80
2016,08,14,07,14,15.80
2016,08,14,07,15,15.80
2016,08,14,07,16,15.80
2016,08,14,07,17,15.80
2016,08,14,07,18,15.80
2016,08,14,07,19,15.80
2016,08,14,07,20,15.80
2016,08,14,07,21,15.80
2016,08,14,07,22,15.80
2016,08,14,07,23,15.80
2016,08,14,07,24,15.80
2016,08,14,07,25,15.80
2016,08,14,07,26,15.80
2016,08,14,07,27,15.80
2016,08,14,07,28,15.80
2016,08,14,07,29,15.80
2016,08,14,07,30,15.80
2016,08,14,07,31,15.80
2016,08,14,07,32,15.80
2016,08,14,07,33,15.80
2016,08,14,07,34,15.80
2016,08,14,07,35,15.80
2016,08,14,07,36,15.80
2016,08,14,07,37,15.80
2016,08,14,07,38,15.80
2016,08,14,07,39,15.80
2016,08,14,07,40,15.80
2016,08,14,07,41,15.80
2016,08,14,07,42,15.80
2016,08,14,07,43,15.90
2016,08,14,07,44,15.90
2016,08,14,07,45,15.90
2016,08,14,07,46,15.90
2016,08,14,07,47,15.90
2016,08,14,07,48,16.00
2016,08,14,07,49,16.00
2016,08,14,07,50,16.00
2016,08,14,07,51,16.10
2016,08,14,07,52,16.10
2016,08,14,07,53,16.10
2016,08,14,07,54,16.20
2016,08,14,07,55,16.20
2016,08,14,07,56,16.20
2016,08,14,07,57,16.30
2016,08,14,07,58,16.30
2016,08,14,07,59,16.30
2016,08,14,08,00,16.40
2016,08,14,08,01,16.40
2016,08,14,08,02,16.40
2016,08,14,08,03,16.50
2016,08,14,08,04,16.50
2016,08,14,08,05,16.50
2016,08,14,08,06,16.60
2016,08,14,08,07,16.60
2016,08,14,08,08,16.60
2016,08,14,08,09,16.60
2016,08,14,08,10,16.60
2016,08,14,08,11,16.60
2016,08,14,08,12,16.60
2016,08,14,08,13,16.60
2016,08,14,08,14,16.60
2016,08,14,08,15,16.60
2016,08,14,08,16,16.60
2016,08,14,08,17,16.60
2016,08,14,08,18,16.60
2016,08,14,08,19,16.70
2016,08,14,08,20,16.70
2016,08,14,08,21,16.70
2016,08,14,08,22,16.80
2016,08,14,08,23,16.80
2016,08,14,08,24,16.90
2016,08,14,08,25,16.90
2016,08,14,08,26,17.00
2016,08,14,08,27,17.00
2016,08,14,08,28,17.10
2016,08,14,08,29,17.10
2016,08,14,08,30,17.10
2016,08,14,08,31,17.20
2016,08,14,08,32,17.20
2016,08,14,08,33,17.30
2016,08,14,08,34,17.30
2016,08,14,08,35,17.30
2016,08,14,08,36,17.30
2016,08,14,08,37,17.30
2016,08,14,08,38,17.30
2016,08,14,08,39,17.40
2016,08,14,08,40,17.40
2016,08,14,08,41,17.40
2016,08,14,08,42,17.50
2016,08,14,08,43,17.50
2016,08,14,08,44,17.50
2016,08,14,08,45,17.60
2016,08,14,08,46,17.60
2016,08,14,08,47,17.60
2016,08,14,08,48,17.70
2016,08,14,08,49,17.70
2016,08,14,08,50,17.70
2016,08,14,08,51,17.80
2016,08,14,08,52,17.80
2016,08,14,08,53,17.80
2016,08,14,08,54,17.90
2016,08,14,08,55,17.90
2016,08,14,08,56,18.00
2016,08,14,08,57,18.10
2016,08,14,08,58,18.10
2016,08,14,08,59,18.20
2016,08,14,09,00,18.20
2016,08,14,09,01,18.30
2016,08,14,09,02,18.30
2016,08,14,09,03,18.40
2016,08,14,09,04,18.50
2016,08,14,09,05,18.50
2016,08,14,09,06,18.60
2016,08,14,09,07,18.60
2016,08,14,09,08,18.60
2016,08,14,09,09,18.60
2016,08,14,09,10,18.60
2016,08,14,09,11,18.50
2016,08,14,09,12,18.40
2016,08,14,09,13,18.40
2016,08,14,09,14,18.40
2016,08,14,09,15,18.40
2016,08,14,09,16,18.40
2016,08,14,09,17,18.40
2016,08,14,09,18,18.50
2016,08,14,09,19,18.50
2016,08,14,09,20,18.50
2016,08,14,09,21,18.50
2016,08,14,09,22,18.50
2016,08,14,09,23,18.50
2016,08,14,09,24,18.50
2016,08,14,09,25,18.60
2016,08,14,09,26,18.60
2016,08,14,09,27,18.70
2016,08,14,09,28,18.70
2016,08,14,09,29,18.70
2016,08,14,09,30,18.70
2016,08,14,09,31,18.80
2016,08,14,09,32,18.80
2016,08,14,09,33,18.80
2016,08,14,09,34,18.90
2016,08,14,09,35,18.90
2016,08,14,09,36,18.90
2016,08,14,09,37,18.90
2016,08,14,09,38,18.90
2016,08,14,09,39,18.90
2016,08,14,09,40,19.00
2016,08,14,09,41,19.00
2016,08,14,09,42,19.00
2016,08,14,09,43,19.10
2016,08,14,09,44,19.10
2016,08,14,09,45,19.10
2016,08,14,09,46,19.20
2016,08,14,09,47,19.20
2016,08,14,09,48,19.20
2016,08,14,09,49,19.20
2016,08,14,09,50,19.20
2016,08,14,09,51,19.20
2016,08,14,09,52,19.30
2016,08,14,09,53,19.30
2016,08,14,09,54,19.30
2016,08,14,09,55,19.40
2016,08,14,09,56,19.40
2016,08,14,09,57,19.40
2016,08,14,09,58,19.40
2016,08,14,09,59,19.40
2016,08,14,10,00,19.40
2016,08,14,10,01,19.40
2016,08,14,10,02,19.40
2016,08,14,10,03,19.50
2016,08,14,10,04,19.60
2016,08,14,10,05,19.60
2016,08,14,10,06,19.70
2016,08,14,10,07,19.80
2016,08,14,10,08,19.90
2016,08,14,10,09,19.90
2016,08,14,10,10,20.00
2016,08,14,10,11,20.00
2016,08,14,10,12,20.00
2016,08,14,10,13,20.10
2016,08,14,10,14,20.10
2016,08,14,10,15,20.10
2016,08,14,10,16,20.10
2016,08,14,10,17,20.20
2016,08,14,10,18,20.20
2016,08,14,10,19,20.20
2016,08,14,10,20,20.20
2016,08,14,10,21,20.30
2016,08,14,10,22,20.30
2016,08,14,10,23,20.30
2016,08,14,10,24,20.30
2016,08,14,10,25,20.30
2016,08,14,10,26,20.30
2016,08,14,10,27,20.40
2016,08,14,10,28,20.40
2016,08,14,10,29,20.40
2016,08,14,10,30,20.40
2016,08,14,10,31,20.50
2016,08,14,10,32,20.60
2016,08,14,10,33,20.60
2016,08,14,10,34,20.70
2016,08,14,10,35,20.70
2016,08,14,10,36,20.60
2016,08,14,10,37,20.60
2016,08,14,10,38,20.50
2016,08,14,10,39,20.50
2016,08,14,10,40,20.50
2016,08,14,10,41,20.60
2016,08,14,10,42,20.60
2016,08,14,10,43,20.70
2016,08,14,10,44,20.70
2016,08,14,10,45,20.80
2016,08,14,10,46,20.70
2016,08,14,10,47,20.70
2016,08,14,10,48,20.60
2016,08,14,10,49,20.60
2016,08,14,10,50,20.60
2016,08,14,10,51,20.60
2016,08,14,10,52,20.60
2016,08,14,10,53,20.60
2016,08,14,10,54,20.60
2016,08,14,10,55,20.70
2016,08,14,10,56,20.70
2016,08,14,10,57,20.80
2016,08,14,10,58,20.80
2016,08,14,10,59,20.90
2016,08,14,11,00,21.00
2016,08,14,11,01,21.00
2016,08,14,11,02,21.00
2016,08,14,11,03,21.00
2016,08,14,11,04,21.10
2016,08,14,11,05,21.10
2016,08,14,11,06,21.20
2016,08,14,11,07,21.30
2016,08,14,11,08,21.40
2016,08,14,11,09,21.50
2016,08,14,11,10,21.50
2016,08,14,11,11,21.50
2016,08,14,11,12,21.60
2016,08,14,11,13,21.70
2016,08,14,11,14,21.70
2016,08,14,11,15,21.80
2016,08,14,11,16,21.90
2016,08,14,11,17,22.00
2016,08,14,11,18,22.00
2016,08,14,11,19,22.00
2016,08,14,11,20,21.80
2016,08,14,11,21,21.80
2016,08,14,11,22,21.70
2016,08,14,11,23,21.70
2016,08,14,11,24,21.80
2016,08,14,11,25,21.80
2016,08,14,11,26,21.90
2016,08,14,11,27,22.00
2016,08,14,11,28,22.10
2016,08,14,11,29,22.10
2016,08,14,11,30,22.10
2016,08,14,11,31,22.20
2016,08,14,11,32,22.30
2016,08,14,11,33,22.30
2016,08,14,11,34,22.20
2016,08,14,11,35,22.20
2016,08,14,11,36,22.10
2016,08,14,11,37,22.00
2016,08,14,11,38,22.00
2016,08,14,11,39,22.00
2016,08,14,11,40,22.00
2016,08,14,11,41,22.00
2016,08,14,11,42,22.10
2016,08,14,11,43,22.10
2016,08,14,11,44,22.30
2016,08,14,11,45,22.30
2016,08,14,11,46,22.30
2016,08,14,11,47,22.30
2016,08,14,11,48,22.30
2016,08,14,11,49,22.30
2016,08,14,11,50,22.30
2016,08,14,11,51,22.40
2016,08,14,11,52,22.40
2016,08,14,11,53,22.50
2016,08,14,11,54,22.60
2016,08,14,11,55,22.60
2016,08,14,11,56,22.70
2016,08,14,11,57,22.70
2016,08,14,11,58,22.60
2016,08,14,11,59,22.60
2016,08,14,12,00,22.60
2016,08,14,12,01,22.70
2016,08,14,12,02,22.70
2016,08,14,12,03,22.70
2016,08,14,12,04,22.70
2016,08,14,12,05,22.80
2016,08,14,12,06,22.90
2016,08,14,12,07,22.90
2016,08,14,12,08,22.90
2016,08,14,12,09,22.90
2016,08,14,12,10,22.90
2016,08,14,12,11,22.80
2016,08,14,12,12,22.80
2016,08,14,12,13,22.80
2016,08,14,12,14,22.80
2016,08,14,12,15,22.90
2016,08,14,12,16,22.90
2016,08,14,12,17,23.00
2016,08,14,12,18,22.90
2016,08,14,12,19,22.90
2016,08,14,12,20,23.00
2016,08,14,12,21,23.00
2016,08,14,12,22,23.10
2016,08,14,12,23,23.10
2016,08,14,12,24,23.20
2016,08,14,12,25,23.20
2016,08,14,12,26,23.30
2016,08,14,12,27,23.30
2016,08,14,12,28,23.40
2016,08,14,12,29,23.40
2016,08,14,12,30,23.50
2016,08,14,12,31,23.50
2016,08,14,12,32,23.60
2016,08,14,12,33,23.60
2016,08,14,12,34,23.60
2016,08,14,12,35,23.60
2016,08,14,12,36,23.70
2016,08,14,12,37,23.70
2016,08,14,12,38,23.70
2016,08,14,12,39,23.60
2016,08,14,12,40,23.60
2016,08,14,12,41,23.60
2016,08,14,12,42,23.70
2016,08,14,12,43,23.80
2016,08,14,12,44,23.90
2016,08,14,12,45,24.00
2016,08,14,12,46,24.10
2016,08,14,12,47,24.20
2016,08,14,12,48,24.20
2016,08,14,12,49,24.30
2016,08,14,12,50,24.30
2016,08,14,12,51,24.40
2016,08,14,12,52,24.40
2016,08,14,12,53,24.50
2016,08,14,12,54,24.60
2016,08,14,12,55,24.70
2016,08,14,12,56,24.80
2016,08,14,12,57,24.90
2016,08,14,12,58,24.90
2016,08,14,12,59,24.90
2016,08,14,13,00,24.80
2016,08,14,13,01,24.80
2016,08,14,13,02,24.80
2016,08,14,13,03,24.80
2016,08,14,13,04,24.80
2016,08,14,13,05,24.80
2016,08,14,13,06,24.80
2016,08,14,13,07,24.80
2016,08,14,13,08,24.80
2016,08,14,13,09,24.90
2016,08,14,13,10,25.00
2016,08,14,13,11,25.10
2016,08,14,13,12,25.20
2016,08,14,13,13,25.20
2016,08,14,13,14,25.30
2016,08,14,13,15,25.20
2016,08,14,13,16,25.30
2016,08,14,13,17,25.30
2016,08,14,13,18,25.30
2016,08,14,13,19,25.30
2016,08,14,13,20,25.30
2016,08,14,13,21,25.30
2016,08,14,13,22,25.30
2016,08,14,13,23,25.40
2016,08,14,13,24,25.40
2016,08,14,13,25,25.50
2016,08,14,13,26,25.50
2016,08,14,13,27,25.60
2016,08,14,13,28,25.60
2016,08,14,13,29,25.60
2016,08,14,13,30,25.50
2016,08,14,13,31,25.50
2016,08,14,13,32,25.60
2016,08,14,13,33,25.60
2016,08,14,13,34,25.60
2016,08,14,13,35,25.70
2016,08,14,13,36,25.80
2016,08,14,13,37,25.80
2016,08,14,13,38,25.90
2016,08,14,13,39,26.00
2016,08,14,13,40,26.10
2016,08,14,13,41,26.20
2016,08,14,13,42,26.30
2016,08,14,13,43,26.40
2016,08,14,13,44,26.60
2016,08,14,13,45,26.70
2016,08,14,13,46,26.80
2016,08,14,13,47,26.90
2016,08,14,13,48,26.80
2016,08,14,13,49,26.80
2016,08,14,13,50,26.80
2016,08,14,13,51,26.70
2016,08,14,13,52,26.50
2016,08,14,13,53,26.30
2016,08,14,13,54,26.20
2016,08,14,13,55,26.10
2016,08,14,13,56,26.00
2016,08,14,13,57,26.00
2016,08,14,13,58,26.00
2016,08,14,13,59,26.00
2016,08,14,14,00,26.00
2016,08,14,14,01,26.10
2016,08,14,14,02,26.10
2016,08,14,14,03,26.10
2016,08,14,14,04,26.20
2016,08,14,14,05,26.20
2016,08,14,14,06,26.20
2016,08,14,14,07,26.20
2016,08,14,14,08,26.30
2016,08,14,14,09,26.30
2016,08,14,14,10,26.30
2016,08,14,14,11,26.30
2016,08,14,14,12,26.30
2016,08,14,14,13,26.40
2016,08,14,14,14,26.40
2016,08,14,14,15,26.50
2016,08,14,14,16,26.50
2016,08,14,14,17,26.50
2016,08,14,14,18,26.50
2016,08,14,14,19,26.40
2016,08,14,14,20,26.40
2016,08,14,14,21,26.40
2016,08,14,14,22,26.40
2016,08,14,14,23,26.40
2016,08,14,14,24,26.50
2016,08,14,14,25,26.50
2016,08,14,14,26,26.50
2016,08,14,14,27,26.60
2016,08,14,14,28,26.60
2016,08,14,14,29,26.60
2016,08,14,14,30,26.60
2016,08,14,14,31,26.70
2016,08,14,14,32,26.80
2016,08,14,14,33,26.70
2016,08,14,14,34,26.60
2016,08,14,14,35,26.60
2016,08,14,14,36,26.60
2016,08,14,14,37,26.60
2016,08,14,14,38,26.70
2016,08,14,14,39,26.70
2016,08,14,14,40,26.70
2016,08,14,14,41,26.60
2016,08,14,14,42,26.60
2016,08,14,14,43,26.60
2016,08,14,14,44,26.70
2016,08,14,14,45,26.70
2016,08,14,14,46,26.70
2016,08,14,14,47,26.70
2016,08,14,14,48,26.70
2016,08,14,14,49,26.80
2016,08,14,14,50,26.80
2016,08,14,14,51,26.80
2016,08,14,14,52,26.80
2016,08,14,14,53,26.90
2016,08,14,14,54,27.00
2016,08,14,14,55,27.10
2016,08,14,14,56,27.10
2016,08,14,14,57,27.00
2016,08,14,14,58,26.90
2016,08,14,14,59,26.80
2016,08,14,15,00,26.80
2016,08,14,15,01,26.70
2016,08,14,15,02,26.70
2016,08,14,15,03,26.70
2016,08,14,15,04,26.80
2016,08,14,15,05,26.80
2016,08,14,15,06,26.80
2016,08,14,15,07,26.80
2016,08,14,15,08,26.90
2016,08,14,15,09,27.00
2016,08,14,15,10,27.10
2016,08,14,15,11,27.20
2016,08,14,15,12,27.30
2016,08,14,15,13,27.40
2016,08,14,15,14,27.40
2016,08,14,15,15,27.40
2016,08,14,15,16,27.50
2016,08,14,15,17,27.60
2016,08,14,15,18,27.60
2016,08,14,15,19,27.70
2016,08,14,15,20,27.70
2016,08,14,15,21,27.80
2016,08,14,15,22,27.80
2016,08,14,15,23,27.80
2016,08,14,15,24,27.90
2016,08,14,15,25,27.90
2016,08,14,15,26,27.90
2016,08,14,15,27,28.00
2016,08,14,15,28,28.10
2016,08,14,15,29,28.10
2016,08,14,15,30,28.20
2016,08,14,15,31,28.20
2016,08,14,15,32,28.20
2016,08,14,15,33,28.20
2016,08,14,15,34,28.10
2016,08,14,15,35,28.10
2016,08,14,15,36,28.10
2016,08,14,15,37,28.00
2016,08,14,15,38,28.00
2016,08,14,15,39,28.10
2016,08,14,15,40,28.10
2016,08,14,15,41,28.10
2016,08,14,15,42,28.10
2016,08,14,15,43,28.10
2016,08,14,15,44,28.10
2016,08,14,15,45,28.00
2016,08,14,15,46,28.00
2016,08,14,15,47,27.90
2016,08,14,15,48,27.90
2016,08,14,15,49,28.00
2016,08,14,15,50,28.00
2016,08,14,15,51,28.00
2016,08,14,15,52,28.10
2016,08,14,15,53,28.10
2016,08,14,15,54,28.10
2016,08,14,15,55,28.20
2016,08,14,15,56,28.20
2016,08,14,15,57,28.30
2016,08,14,15,58,28.30
2016,08,14,15,59,28.40
2016,08,14,16,00,28.50
2016,08,14,16,01,28.50
2016,08,14,16,02,28.50
2016,08,14,16,03,28.40
2016,08,14,16,04,28.40
2016,08,14,16,05,28.30
2016,08,14,16,06,28.30
2016,08,14,16,07,28.30
2016,08,14,16,08,28.30
2016,08,14,16,09,28.20
2016,08,14,16,10,28.10
2016,08,14,16,11,28.10
2016,08,14,16,12,28.10
2016,08,14,16,13,28.00
2016,08,14,16,14,28.00
2016,08,14,16,15,28.00
2016,08,14,16,16,28.00
2016,08,14,16,17,27.90
2016,08,14,16,18,27.90
2016,08,14,16,19,27.90
2016,08,14,16,20,27.90
2016,08,14,16,21,28.00
2016,08,14,16,22,28.00
2016,08,14,16,23,28.00
2016,08,14,16,24,27.90
2016,08,14,16,25,27.80
2016,08,14,16,26,27.80
2016,08,14,16,27,27.90
2016,08,14,16,28,27.90
2016,08,14,16,29,27.90
2016,08,14,16,30,27.90
2016,08,14,16,31,27.90
2016,08,14,16,32,28.00
2016,08,14,16,33,28.00
2016,08,14,16,34,28.00
2016,08,14,16,35,28.10
2016,08,14,16,36,28.10
2016,08,14,16,37,28.10
2016,08,14,16,38,28.20
2016,08,14,16,39,28.20
2016,08,14,16,40,28.20
2016,08,14,16,41,28.20
2016,08,14,16,42,28.30
2016,08,14,16,43,28.30
2016,08,14,16,44,28.30
2016,08,14,16,45,28.30
2016,08,14,16,46,28.30
2016,08,14,16,47,28.30
2016,08,14,16,48,28.30
2016,08,14,16,49,28.20
2016,08,14,16,50,28.20
2016,08,14,16,51,28.20
2016,08,14,16,52,28.10
2016,08,14,16,53,28.10
2016,08,14,16,54,28.00
2016,08,14,16,55,28.00
2016,08,14,16,56,27.90
2016,08,14,16,57,27.90
2016,08,14,16,58,27.90
2016,08,14,16,59,27.90
2016,08,14,17,00,27.90
2016,08,14,17,01,27.90
2016,08,14,17,02,28.00
2016,08,14,17,03,28.00
2016,08,14,17,04,28.10
2016,08,14,17,05,28.10
2016,08,14,17,06,28.10
2016,08,14,17,07,28.10
2016,08,14,17,08,28.00
2016,08,14,17,09,28.00
2016,08,14,17,10,28.00
2016,08,14,17,11,28.00
2016,08,14,17,12,28.10
2016,08,14,17,13,28.10
2016,08,14,17,14,28.00
2016,08,14,17,15,28.00
2016,08,14,17,16,28.00
2016,08,14,17,17,28.00
2016,08,14,17,18,28.00
2016,08,14,17,19,28.00